sat.trackr.live / text

‹ back to catalog

JILIN GAOFEN OBJECT G

NORAD 68697 · 2026-080G

PAYLOAD ACTIVE UNKNOWN

§ Identity

Operator
Country
PRC
Launch date
2026-04-14
Launch site
JSC
Launch vehicle
Mass (kg)
RCS (m²)

External: N2YO · Heavens-Above · Gunter

§ Orbital elements

Epoch: 2026-05-25T04:09:53.489664Z

Period
95.37 min
Inclination
97.6655°
Eccentricity
0.0016704
Mean motion
15.09890149 rev/d
Perigee alt
525.0 km
Apogee alt
548.1 km
Semi-major
6,914.7 km
B*
3.2071e-4
RAAN
220.8268°
Arg perigee
141.2934°
Mean anomaly
218.9495°
Rev number
615

§ Raw data

JILIN GAOFEN OBJECT G1 68697U 26080G   26145.17353576  .00005146  00000+0  32071-3 0  99982 68697  97.6655 220.8268 0016704 141.2934 218.9495 15.09890149  6152

JSON: /api/v1/satellites/68697 · /tle

For live sub-satellite position, see the globe view (requires WebGL).

§ Visibility from observer

Set your observer location to see the next 7 days of passes ≥ 10°. The values pass through the URL so the page stays shareable.

No JS? Fill the form by hand. The geolocation button needs JavaScript.